| time (UTC) | temp F | wind direction | speed knots | gust knots | rain 1hr in | rain 24hr in | rain mn in | humidity % | barometer mb |
| 20260505170608 | 54 | 301 | 0.9 | 3.5 | 0.20 | 0.27 | 0.27 | 95 | 1006.9 |
| 20260505165608 | 55 | 271 | 2.6 | 11.3 | 0.18 | 0.24 | 0.24 | 95 | 1007.2 |
| 20260505164608 | 55 | 280 | 2.6 | 12.2 | 0.14 | 0.20 | 0.20 | 94 | 1007.2 |
| 20260505163608 | 55 | 254 | 1.7 | 8.7 | 0.08 | 0.14 | 0.14 | 93 | 1007.2 |
| 20260505162608 | 56 | 288 | 1.7 | 5.2 | 0.04 | 0.10 | 0.10 | 91 | 1007.3 |
| 20260505161608 | 57 | 285 | 1.7 | 5.2 | 0.02 | 0.08 | 0.08 | 86 | 1006.8 |
| 20260505160608 | 58 | 36 | 0.0 | 3.5 | 0.01 | 0.07 | 0.07 | 80 | 1006.3 |
| 20260505152608 | 64 | 59 | 3.5 | 8.7 | 0.00 | 0.06 | 0.06 | 64 | 1005.8 |
| 20260505151608 | 66 | 51 | 2.6 | 3.5 | 0.00 | 0.06 | 0.06 | 60 | 1006.0 |
| 20260505150608 | 66 | 31 | 0.9 | 3.5 | 0.00 | 0.06 | 0.06 | 57 | 1006.0 |
| 20260505140608 | 68 | 44 | 4.3 | 9.6 | 0.00 | 0.06 | 0.06 | 54 | 1006.6 |
| 20260505124607 | 68 | 32 | 0.9 | 3.5 | 0.00 | 0.06 | 0.06 | 55 | 1007.5 |
| 20260505123608 | 68 | 39 | 1.7 | 3.5 | 0.00 | 0.06 | 0.06 | 54 | 1007.5 |
| 20260505122608 | 69 | 65 | 0.9 | 2.6 | 0.00 | 0.06 | 0.06 | 52 | 1007.6 |
| 20260505121607 | 68 | 34 | 0.9 | 2.6 | 0.00 | 0.06 | 0.06 | 51 | 1007.8 |
| 20260505120608 | 68 | 61 | 1.7 | 5.2 | 0.00 | 0.06 | 0.06 | 52 | 1007.8 |
| 20260505115608 | 69 | 107 | 1.7 | 7.0 | 0.00 | 0.06 | 0.06 | 52 | 1007.9 |
| 20260505114608 | 68 | 35 | 0.9 | 5.2 | 0.00 | 0.06 | 0.06 | 53 | 1008.0 |
| 20260505113608 | 68 | 49 | 2.6 | 6.1 | 0.00 | 0.06 | 0.06 | 55 | 1008.1 |
| 20260505112608 | 68 | 137 | 1.7 | 6.1 | 0.00 | 0.06 | 0.06 | 55 | 1008.1 |
| 20260505111608 | 68 | 45 | 0.9 | 6.1 | 0.00 | 0.06 | 0.06 | 54 | 1008.2 |
| 20260505110609 | 68 | 51 | 3.5 | 7.0 | 0.00 | 0.06 | 0.06 | 56 | 1008.3 |
| 20260505101609 | 67 | 70 | 3.5 | 7.8 | 0.00 | 0.06 | 0.06 | 64 | 1008.7 |
| 20260505100607 | 66 | 57 | 1.7 | 5.2 | 0.00 | 0.06 | 0.06 | 70 | 1008.8 |
| 20260505095607 | 65 | 60 | 2.6 | 6.1 | 0.00 | 0.06 | 0.06 | 71 | 1009.0 |
| 20260505094608 | 65 | 69 | 1.7 | 5.2 | 0.00 | 0.06 | 0.06 | 72 | 1008.9 |
| 20260505093607 | 64 | 64 | 3.5 | 7.0 | 0.00 | 0.06 | 0.06 | 72 | 1009.0 |
| 20260505092607 | 64 | 61 | 2.6 | 6.1 | 0.00 | 0.06 | 0.06 | 74 | 1009.0 |
| 20260505091608 | 63 | 55 | 1.7 | 3.5 | 0.00 | 0.06 | 0.06 | 77 | 1009.1 |
| 20260505090607 | 62 | 52 | 2.6 | 5.2 | 0.00 | 0.06 | 0.06 | 78 | 1009.2 |
| 20260505085607 | 61 | 46 | 2.6 | 5.2 | 0.00 | 0.06 | 0.06 | 79 | 1009.4 |
| 20260505084607 | 61 | 50 | 2.6 | 5.2 | 0.00 | 0.06 | 0.06 | 76 | 1009.3 |
| 20260505083607 | 60 | 56 | 2.6 | 5.2 | 0.00 | 0.06 | 0.06 | 82 | 1009.4 |
| 20260505082607 | 60 | 41 | 1.7 | 5.2 | 0.00 | 0.06 | 0.06 | 82 | 1009.5 |
| 20260505081608 | 58 | 63 | 2.6 | 3.5 | 0.00 | 0.06 | 0.06 | 83 | 1009.6 |
| 20260505080607 | 58 | 40 | 2.6 | 3.5 | 0.00 | 0.06 | 0.06 | 84 | 1009.5 |
| 20260505075607 | 58 | 44 | 0.9 | 1.7 | 0.00 | 0.06 | 0.06 | 83 | 1009.7 |
| 20260505074607 | 58 | 0.0 | 0.9 | 0.00 | 0.06 | 0.06 | 83 | 1009.7 | |
| 20260505073607 | 58 | 44 | 0.9 | 2.6 | 0.00 | 0.06 | 0.06 | 84 | 1009.7 |
| 20260505072607 | 58 | 46 | 0.9 | 2.6 | 0.00 | 0.06 | 0.06 | 84 | 1009.7 |
| 20260505071607 | 58 | 62 | 0.9 | 1.7 | 0.00 | 0.06 | 0.06 | 84 | 1009.6 |
| 20260505070607 | 57 | 70 | 1.7 | 2.6 | 0.00 | 0.06 | 0.06 | 83 | 1009.7 |
| 20260505065607 | 57 | 70 | 0.9 | 1.7 | 0.00 | 0.06 | 0.06 | 83 | 1009.7 |
| 20260505064607 | 57 | 58 | 0.9 | 1.7 | 0.00 | 0.06 | 0.06 | 83 | 1009.7 |
| 20260505063607 | 57 | 66 | 0.9 | 2.6 | 0.00 | 0.06 | 0.06 | 83 | 1009.7 |
| 20260505062607 | 56 | 58 | 1.7 | 2.6 | 0.00 | 0.06 | 0.06 | 83 | 1009.7 |
| 20260505061607 | 56 | 59 | 1.7 | 3.5 | 0.00 | 0.06 | 0.06 | 84 | 1009.6 |
| 20260505060607 | 56 | 66 | 2.6 | 3.5 | 0.00 | 0.06 | 0.06 | 84 | 1009.5 |
| 20260505055607 | 56 | 77 | 2.6 | 5.2 | 0.00 | 0.06 | 0.06 | 84 | 1009.5 |
| 20260505054607 | 56 | 74 | 2.6 | 3.5 | 0.00 | 0.06 | 0.06 | 84 | 1009.5 |
| 20260505053607 | 55 | 64 | 2.6 | 5.2 | 0.00 | 0.06 | 0.06 | 84 | 1009.6 |
| 20260505052607 | 56 | 62 | 2.6 | 5.2 | 0.00 | 0.06 | 0.06 | 84 | 1009.6 |
| 20260505051607 | 56 | 79 | 2.6 | 3.5 | 0.00 | 0.06 | 0.06 | 83 | 1009.4 |
| 20260505050607 | 55 | 82 | 0.9 | 2.6 | 0.00 | 0.06 | 0.06 | 84 | 1009.5 |
| 20260505041607 | 55 | 58 | 2.6 | 3.5 | 0.00 | 0.06 | 0.06 | 84 | 1009.5 |
| 20260505040607 | 54 | 60 | 2.6 | 3.5 | 0.00 | 0.06 | 0.06 | 87 | 1009.6 |
| 20260505035607 | 54 | 56 | 1.7 | 3.5 | 0.00 | 0.06 | 0.06 | 88 | 1009.7 |
| 20260505034607 | 55 | 54 | 1.7 | 3.5 | 0.00 | 0.06 | 0.06 | 86 | 1009.8 |
| 20260505033607 | 55 | 62 | 2.6 | 3.5 | 0.00 | 0.06 | 0.06 | 85 | 1009.9 |
| 20260505032607 | 55 | 74 | 2.6 | 3.5 | 0.00 | 0.06 | 0.06 | 84 | 1009.9 |
| 20260505031607 | 55 | 71 | 2.6 | 5.2 | 0.00 | 0.06 | 0.06 | 84 | 1010.0 |
| 20260505030607 | 56 | 65 | 2.6 | 5.2 | 0.00 | 0.06 | 0.06 | 82 | 1010.1 |
| 20260505025607 | 56 | 76 | 0.9 | 2.6 | 0.00 | 0.06 | 0.06 | 83 | 1010.3 |
| 20260505024607 | 56 | 98 | 0.0 | 2.6 | 0.00 | 0.06 | 0.06 | 83 | 1010.4 |
| 20260505023607 | 55 | 93 | 0.9 | 3.5 | 0.01 | 0.06 | 0.06 | 84 | 1010.5 |
| 20260505022607 | 55 | 63 | 2.6 | 5.2 | 0.05 | 0.06 | 0.06 | 84 | 1010.5 |
| 20260505021607 | 55 | 76 | 2.6 | 5.2 | 0.05 | 0.06 | 0.06 | 86 | 1010.5 |
| 20260505020607 | 56 | 69 | 1.7 | 3.5 | 0.05 | 0.06 | 0.06 | 84 | 1010.7 |
| 20260505015607 | 56 | 71 | 1.7 | 5.2 | 0.05 | 0.06 | 0.06 | 82 | 1010.7 |
| 20260505014607 | 56 | 134 | 2.6 | 3.5 | 0.06 | 0.06 | 0.06 | 80 | 1011.0 |
| 20260505013607 | 56 | 135 | 2.6 | 6.1 | 0.05 | 0.05 | 0.05 | 82 | 1011.2 |
| 20260505012607 | 56 | 159 | 0.9 | 0.9 | 0.01 | 0.01 | 0.01 | 77 | 1011.2 |
| 20260505011607 | 57 | 166 | 0.9 | 3.5 | 0.01 | 0.01 | 0.01 | 76 | 1011.4 |
| 20260505010607 | 57 | 58 | 1.7 | 2.6 | 0.01 | 0.01 | 0.01 | 72 | 1011.5 |
| 20260505005607 | 57 | 45 | 1.7 | 3.5 | 0.01 | 0.01 | 0.01 | 74 | 1011.6 |
| 20260505004607 | 57 | 49 | 3.5 | 6.1 | 0.00 | 0.00 | 0.00 | 74 | 1011.6 |
| 20260505003607 | 57 | 32 | 0.9 | 1.7 | 0.00 | 0.00 | 0.00 | 76 | 1011.7 |
| 20260505002607 | 57 | 32 | 1.7 | 2.6 | 0.00 | 0.00 | 0.00 | 74 | 1011.9 |
| 20260505001607 | 57 | 32 | 1.7 | 2.6 | 0.00 | 0.00 | 0.00 | 74 | 1011.9 |
| 20260505000607 | 57 | 34 | 1.7 | 3.5 | 0.00 | 0.00 | 0.00 | 74 | 1011.8 |
| 20260504235607 | 57 | 33 | 1.7 | 3.5 | 0.00 | 0.00 | 0.00 | 74 | 1011.8 |
| 20260504234607 | 57 | 40 | 2.6 | 5.2 | 0.00 | 0.00 | 0.00 | 74 | 1011.9 |
| 20260504233607 | 57 | 44 | 3.5 | 7.8 | 0.00 | 0.00 | 0.00 | 73 | 1011.7 |
| 20260504232607 | 57 | 37 | 3.5 | 7.0 | 0.00 | 0.00 | 0.00 | 73 | 1011.9 |
| 20260504231607 | 58 | 42 | 5.2 | 8.7 | 0.00 | 0.00 | 0.00 | 73 | 1012.0 |
| 20260504230607 | 57 | 42 | 5.2 | 8.7 | 0.00 | 0.00 | 0.00 | 73 | 1012.1 |
| 20260504225609 | 58 | 34 | 4.3 | 8.7 | 0.00 | 0.00 | 0.00 | 73 | 1012.2 |
| 20260504224607 | 58 | 44 | 6.1 | 9.6 | 0.00 | 0.00 | 0.00 | 73 | 1012.2 |
| 20260504223607 | 58 | 40 | 5.2 | 9.6 | 0.00 | 0.00 | 0.00 | 73 | 1012.4 |
| 20260504222607 | 58 | 40 | 6.1 | 8.7 | 0.00 | 0.00 | 0.00 | 71 | 1012.4 |
| 20260504221607 | 58 | 46 | 5.2 | 8.7 | 0.00 | 0.00 | 0.00 | 71 | 1012.4 |
| 20260504220607 | 58 | 32 | 3.5 | 7.8 | 0.00 | 0.00 | 0.00 | 70 | 1012.4 |
| 20260504215607 | 58 | 36 | 3.5 | 7.0 | 0.00 | 0.00 | 0.00 | 70 | 1012.4 |
| 20260504214607 | 59 | 33 | 3.5 | 6.1 | 0.00 | 0.00 | 0.00 | 69 | 1012.5 |
| 20260504213607 | 59 | 32 | 2.6 | 7.0 | 0.00 | 0.00 | 0.00 | 69 | 1012.7 |
| 20260504212607 | 59 | 40 | 2.6 | 7.0 | 0.00 | 0.00 | 0.00 | 68 | 1012.8 |
| 20260504211607 | 59 | 36 | 2.6 | 5.2 | 0.00 | 0.00 | 0.00 | 67 | 1012.8 |
| 20260504210607 | 59 | 30 | 1.7 | 5.2 | 0.00 | 0.00 | 0.00 | 68 | 1012.9 |
| 20260504205608 | 59 | 34 | 1.7 | 5.2 | 0.00 | 0.00 | 0.00 | 67 | 1012.9 |
| 20260504204608 | 59 | 31 | 1.7 | 3.5 | 0.00 | 0.00 | 0.00 | 67 | 1012.8 |
| 20260504203608 | 59 | 38 | 2.6 | 5.2 | 0.00 | 0.00 | 0.00 | 67 | 1012.8 |
| 20260504202608 | 60 | 32 | 3.5 | 6.1 | 0.00 | 0.00 | 0.00 | 67 | 1012.7 |
| 20260504201608 | 60 | 42 | 3.5 | 6.1 | 0.00 | 0.00 | 0.00 | 66 | 1012.6 |
| 20260504200608 | 60 | 36 | 2.6 | 5.2 | 0.00 | 0.00 | 0.00 | 66 | 1012.7 |
| 20260504195608 | 60 | 45 | 3.5 | 7.0 | 0.00 | 0.00 | 0.00 | 65 | 1012.6 |
| 20260504194608 | 60 | 33 | 2.6 | 5.2 | 0.00 | 0.00 | 0.00 | 65 | 1012.7 |
| 20260504193608 | 61 | 39 | 3.5 | 6.1 | 0.00 | 0.00 | 0.00 | 64 | 1012.5 |
| 20260504192608 | 61 | 41 | 3.5 | 7.8 | 0.00 | 0.00 | 0.00 | 62 | 1012.6 |
| 20260504191608 | 62 | 37 | 2.6 | 5.2 | 0.00 | 0.00 | 0.00 | 61 | 1012.6 |
| 20260504190608 | 63 | 32 | 1.7 | 3.5 | 0.00 | 0.00 | 0.00 | 58 | 1012.5 |
| 20260504185608 | 63 | 33 | 0.9 | 2.6 | 0.00 | 0.00 | 0.00 | 57 | 1012.6 |
| 20260504184608 | 62 | 19 | 0.0 | 0.9 | 0.00 | 0.00 | 0.00 | 59 | 1012.5 |
| 20260504183608 | 63 | 0.0 | 0.0 | 0.00 | 0.00 | 0.00 | 59 | 1012.5 | |
| 20260504182608 | 63 | 0.0 | 0.0 | 0.00 | 0.00 | 0.00 | 59 | 1012.5 | |
| 20260504181608 | 64 | 0.0 | 0.9 | 0.00 | 0.00 | 0.00 | 58 | 1012.6 | |
| 20260504180608 | 64 | 0.0 | 0.9 | 0.00 | 0.00 | 0.00 | 56 | 1012.6 | |
| 20260504175608 | 65 | 0.0 | 0.0 | 0.00 | 0.00 | 0.00 | 55 | 1012.5 | |
| 20260504174608 | 65 | 0.0 | 0.9 | 0.00 | 0.00 | 0.00 | 55 | 1012.5 | |
| 20260504173608 | 65 | 0.0 | 0.9 | 0.00 | 0.00 | 0.00 | 53 | 1012.5 | |
| 20260504172608 | 65 | 327 | 0.9 | 1.7 | 0.00 | 0.00 | 0.00 | 52 | 1012.6 |
| 20260504171608 | 65 | 236 | 2.6 | 5.2 | 0.00 | 0.00 | 0.00 | 52 | 1012.5 |